Flag for Macedonia, Republic of Weather past 2 weeks in Skopje, Macedonia, Republic of

Now
41 °F

Mostly cloudy.


Feels Like: 41 °F
Forecast: 34 / 42 °F
Wind: No wind

Location: Skopje-Petrovec

Current Time: Jan 27, 2015 at 6:00:02 PM

Latest Report: Jan 27, 2015 at 5:30 PM


Visibility: N/A

Pressure: 29.89 "Hg

Humidity: 76%

Dew point: 34 °F

Location of SkopjeLocation

Historic Weather in Skopje — Graph

°F

Skopje temperature yesterday

Maximum temperature yesterday: 43 °F (at 1:30 PM)
Minimum temperature yesterday: 36 °F (at 12:30 AM)
Average temperature yesterday: 37 °F

Past Weeks' High & Low Weather Summary

 TemperatureHumidityPressure
High55 °F (Jan 21, 2:00 PM)100% (Jan 14, 6:30 AM)30.48 "Hg (Jan 14, 6:30 AM)
Low18 °F (Jan 14, 6:00 AM)53% (Jan 13, 11:30 AM)29.68 "Hg (Jan 23, 1:00 PM)
Average37 °F86%30.08 "Hg
* Reported Jan 12 5:00 PM — Jan 27 5:00 PM, Skopje, Weather by CustomWeather, © 2014

Note: Actual official high and low records may vary slightly from our data, if they occured in-between our weather recording intervals... More about our weather records

Advertising

Skopje weather history for previous 24 hours

 ConditionsComfort  
Time TempWeatherWind HumidityBarometerVisibility
5:00 PM
Jan 27
41 °FPartly cloudy.No wind70%29.89 "HgN/A
4:30 PM41 °FBroken clouds.No wind70%29.89 "HgN/A
4:00 PM41 °FBroken clouds.No wind70%29.89 "HgN/A
3:30 PM41 °FBroken clouds.No wind70%29.89 "HgN/A
3:00 PM41 °FBroken clouds.No wind70%29.89 "HgN/A
2:30 PM43 °FBroken clouds.No wind66%29.89 "HgN/A
2:00 PM43 °FScattered clouds.No wind66%29.89 "HgN/A
1:30 PM43 °FScattered clouds.No wind66%29.89 "HgN/A
1:00 PM43 °FScattered clouds.No wind66%29.89 "HgN/A
12:30 PM41 °FPartly sunny.No wind70%29.95 "HgN/A
12:00 PM41 °FBroken clouds.No wind70%29.95 "HgN/A
11:30 AM39 °FPartly sunny.No wind75%29.95 "HgN/A
11:00 AM39 °FOvercast.No wind75%29.98 "HgN/A
10:30 AM37 °FOvercast.No wind81%29.98 "HgN/A
10:00 AM37 °FOvercast.No wind81%29.98 "HgN/A
9:30 AM36 °FMore clouds than sun.No wind87%30.01 "HgN/A
9:00 AM36 °FOvercast.No wind87%30.01 "HgN/A
8:30 AM36 °FOvercast.No wind87%30.01 "HgN/A
8:00 AM36 °FOvercast.No wind81%30.01 "HgN/A
7:30 AM36 °FOvercast.No wind81%30.01 "HgN/A
7:00 AM36 °FMostly cloudy.No wind81%30.01 "HgN/A
6:30 AM36 °FMostly cloudy.No wind87%30.01 "HgN/A
4:30 AM36 °FDrizzle. Mostly cloudy.5 mph87%30.04 "HgN/A
4:00 AM36 °FMostly cloudy.5 mph87%30.04 "HgN/A
3:30 AM36 °FMostly cloudy.3 mph87%30.04 "HgN/A
3:00 AM36 °FOvercast.3 mph87%30.04 "HgN/A
2:30 AM37 °FOvercast.3 mph81%30.07 "HgN/A
2:00 AM36 °FOvercast.3 mph87%30.07 "HgN/A
1:00 AM36 °FOvercast.3 mph87%30.09 "HgN/A
12:30 AM36 °FOvercast.3 mph87%30.09 "HgN/A
12:00 AM36 °FOvercast.5 mph87%30.12 "HgN/A
11:30 PM
Jan 26
36 °FOvercast.5 mph87%30.12 "HgN/A
11:00 PM36 °FMostly cloudy.3 mph87%30.12 "HgN/A
10:30 PM36 °FMostly cloudy.5 mph87%30.12 "HgN/A
10:00 PM36 °FMostly cloudy.5 mph87%30.12 "HgN/A
9:30 PM36 °FMostly cloudy.5 mph87%30.12 "HgN/A
9:00 PM36 °FMostly cloudy.5 mph87%30.12 "HgN/A
8:30 PM36 °FMostly cloudy.2 mph87%30.15 "HgN/A
8:00 PM36 °FMostly cloudy.3 mph87%30.15 "HgN/A
6:00 PM36 °FMostly cloudy.8 mph87%30.15 "HgN/A
Weather by CustomWeather, © 2014

See weather overviewHow to use our weather pages